Year,Month,Day,Hour,Minute,Value (Times are PST for temperature in C)
2019,04,01,00,00,9.10
2019,04,01,00,01,9.10
2019,04,01,00,02,9.10
2019,04,01,00,03,9.10
2019,04,01,00,04,9.10
2019,04,01,00,05,9.10
2019,04,01,00,06,9.20
2019,04,01,00,07,9.20
2019,04,01,00,08,9.30
2019,04,01,00,09,9.30
2019,04,01,00,10,9.40
2019,04,01,00,11,9.50
2019,04,01,00,12,9.50
2019,04,01,00,13,9.60
2019,04,01,00,14,9.70
2019,04,01,00,15,9.80
2019,04,01,00,16,9.90
2019,04,01,00,17,9.90
2019,04,01,00,18,9.90
2019,04,01,00,19,10.00
2019,04,01,00,20,10.00
2019,04,01,00,21,10.00
2019,04,01,00,22,10.00
2019,04,01,00,23,10.00
2019,04,01,00,24,10.00
2019,04,01,00,25,10.00
2019,04,01,00,26,10.00
2019,04,01,00,27,10.00
2019,04,01,00,28,10.10
2019,04,01,00,29,10.00
2019,04,01,00,30,10.00
2019,04,01,00,31,10.00
2019,04,01,00,32,10.00
2019,04,01,00,33,10.00
2019,04,01,00,34,9.90
2019,04,01,00,35,9.90
2019,04,01,00,36,9.90
2019,04,01,00,37,9.90
2019,04,01,00,38,9.90
2019,04,01,00,39,9.90
2019,04,01,00,40,9.90
2019,04,01,00,41,9.90
2019,04,01,00,42,9.80
2019,04,01,00,43,9.80
2019,04,01,00,44,9.80
2019,04,01,00,45,9.70
2019,04,01,00,46,9.70
2019,04,01,00,47,9.70
2019,04,01,00,48,9.60
2019,04,01,00,49,9.60
2019,04,01,00,50,9.60
2019,04,01,00,51,9.50
2019,04,01,00,52,9.50
2019,04,01,00,53,9.40
2019,04,01,00,54,9.40
2019,04,01,00,55,9.30
2019,04,01,00,56,9.30
2019,04,01,00,57,9.20
2019,04,01,00,58,9.20
2019,04,01,00,59,9.20
2019,04,01,01,00,9.10
2019,04,01,01,01,9.10
2019,04,01,01,02,9.10
2019,04,01,01,03,9.10
2019,04,01,01,04,9.10
2019,04,01,01,05,9.00
2019,04,01,01,06,8.90
2019,04,01,01,07,8.90
2019,04,01,01,08,8.90
2019,04,01,01,09,8.90
2019,04,01,01,10,8.90
2019,04,01,01,11,9.00
2019,04,01,01,12,9.00
2019,04,01,01,13,9.10
2019,04,01,01,14,9.10
2019,04,01,01,15,9.20
2019,04,01,01,16,9.30
2019,04,01,01,17,9.30
2019,04,01,01,18,9.40
2019,04,01,01,19,9.40
2019,04,01,01,20,9.50
2019,04,01,01,21,9.60
2019,04,01,01,22,9.60
2019,04,01,01,23,9.70
2019,04,01,01,24,9.70
2019,04,01,01,25,9.80
2019,04,01,01,26,9.80
2019,04,01,01,27,9.80
2019,04,01,01,28,9.80
2019,04,01,01,29,9.90
2019,04,01,01,30,9.80
2019,04,01,01,31,9.80
2019,04,01,01,32,9.70
2019,04,01,01,33,9.70
2019,04,01,01,34,9.50
2019,04,01,01,35,9.40
2019,04,01,01,36,9.30
2019,04,01,01,37,9.20
2019,04,01,01,38,9.20
2019,04,01,01,39,9.10
2019,04,01,01,40,9.00
2019,04,01,01,41,9.00
2019,04,01,01,42,8.90
2019,04,01,01,43,8.90
2019,04,01,01,44,8.90
2019,04,01,01,45,8.80
2019,04,01,01,46,8.80
2019,04,01,01,47,8.80
2019,04,01,01,48,8.80
2019,04,01,01,49,8.70
2019,04,01,01,50,8.70
2019,04,01,01,51,8.70
2019,04,01,01,52,8.70
2019,04,01,01,53,8.70
2019,04,01,01,54,8.70
2019,04,01,01,55,8.70
2019,04,01,01,56,8.70
2019,04,01,01,57,8.70
2019,04,01,01,58,8.70
2019,04,01,01,59,8.70
2019,04,01,02,00,8.70
2019,04,01,02,01,8.70
2019,04,01,02,02,8.70
2019,04,01,02,03,8.60
2019,04,01,02,04,8.60
2019,04,01,02,05,8.60
2019,04,01,02,06,8.60
2019,04,01,02,07,8.60
2019,04,01,02,08,8.50
2019,04,01,02,09,8.50
2019,04,01,02,10,8.50
2019,04,01,02,11,8.50
2019,04,01,02,12,8.50
2019,04,01,02,13,8.40
2019,04,01,02,14,8.40
2019,04,01,02,15,8.40
2019,04,01,02,16,8.40
2019,04,01,02,17,8.40
2019,04,01,02,18,8.30
2019,04,01,02,19,8.30
2019,04,01,02,20,8.30
2019,04,01,02,21,8.30
2019,04,01,02,22,8.20
2019,04,01,02,23,8.20
2019,04,01,02,24,8.20
2019,04,01,02,25,8.20
2019,04,01,02,26,8.10
2019,04,01,02,27,8.10
2019,04,01,02,28,8.10
2019,04,01,02,29,8.10
2019,04,01,02,30,8.10
2019,04,01,02,31,8.00
2019,04,01,02,32,8.00
2019,04,01,02,33,7.90
2019,04,01,02,34,7.90
2019,04,01,02,35,7.90
2019,04,01,02,36,7.90
2019,04,01,02,37,7.90
2019,04,01,02,38,7.90
2019,04,01,02,39,7.90
2019,04,01,02,40,7.90
2019,04,01,02,41,7.90
2019,04,01,02,42,7.80
2019,04,01,02,43,7.80
2019,04,01,02,44,7.80
2019,04,01,02,45,7.80
2019,04,01,02,46,7.80
2019,04,01,02,47,7.80
2019,04,01,02,48,7.80
2019,04,01,02,49,7.80
2019,04,01,02,50,7.80
2019,04,01,02,51,7.80
2019,04,01,02,52,7.80
2019,04,01,02,53,7.80
2019,04,01,02,54,7.80
2019,04,01,02,55,7.80
2019,04,01,02,56,7.80
2019,04,01,02,57,7.80
2019,04,01,02,58,7.70
2019,04,01,02,59,7.70
2019,04,01,03,00,7.70
2019,04,01,03,01,7.70
2019,04,01,03,02,7.70
2019,04,01,03,03,7.60
2019,04,01,03,04,7.70
2019,04,01,03,05,7.70
2019,04,01,03,06,7.70
2019,04,01,03,07,7.70
2019,04,01,03,08,7.70
2019,04,01,03,09,7.70
2019,04,01,03,10,7.70
2019,04,01,03,11,7.70
2019,04,01,03,12,7.70
2019,04,01,03,13,7.70
2019,04,01,03,14,7.70
2019,04,01,03,15,7.70
2019,04,01,03,16,7.70
2019,04,01,03,17,7.70
2019,04,01,03,18,7.70
2019,04,01,03,19,7.70
2019,04,01,03,20,7.70
2019,04,01,03,21,7.70
2019,04,01,03,22,7.70
2019,04,01,03,23,7.70
2019,04,01,03,24,7.70
2019,04,01,03,25,7.70
2019,04,01,03,26,7.70
2019,04,01,03,27,7.70
2019,04,01,03,28,7.70
2019,04,01,03,29,7.70
2019,04,01,03,30,7.70
2019,04,01,03,31,7.60
2019,04,01,03,32,7.60
2019,04,01,03,33,7.60
2019,04,01,03,34,7.60
2019,04,01,03,35,7.50
2019,04,01,03,36,7.50
2019,04,01,03,37,7.50
2019,04,01,03,38,7.50
2019,04,01,03,39,7.50
2019,04,01,03,40,7.50
2019,04,01,03,41,7.50
2019,04,01,03,42,7.50
2019,04,01,03,43,7.50
2019,04,01,03,44,7.60
2019,04,01,03,45,7.60
2019,04,01,03,46,7.60
2019,04,01,03,47,7.60
2019,04,01,03,48,7.70
2019,04,01,03,49,7.70
2019,04,01,03,50,7.80
2019,04,01,03,51,7.80
2019,04,01,03,52,7.80
2019,04,01,03,53,7.80
2019,04,01,03,54,7.80
2019,04,01,03,55,7.80
2019,04,01,03,56,7.80
2019,04,01,03,57,7.80
2019,04,01,03,58,7.80
2019,04,01,03,59,7.80
2019,04,01,04,00,7.90
2019,04,01,04,01,7.90
2019,04,01,04,02,7.90
2019,04,01,04,03,7.90
2019,04,01,04,04,7.90
2019,04,01,04,05,7.90
2019,04,01,04,06,8.00
2019,04,01,04,07,8.00
2019,04,01,04,08,8.00
2019,04,01,04,09,8.10
2019,04,01,04,10,8.10
2019,04,01,04,11,8.10
2019,04,01,04,12,8.20
2019,04,01,04,13,8.20
2019,04,01,04,14,8.20
2019,04,01,04,15,8.20
2019,04,01,04,16,8.20
2019,04,01,04,17,8.20
2019,04,01,04,18,8.20
2019,04,01,04,19,8.30
2019,04,01,04,20,8.40
2019,04,01,04,21,8.50
2019,04,01,04,22,8.60
2019,04,01,04,23,8.70
2019,04,01,04,24,8.80
2019,04,01,04,25,8.90
2019,04,01,04,26,8.90
2019,04,01,04,27,9.10
2019,04,01,04,28,9.30
2019,04,01,04,29,9.30
2019,04,01,04,30,9.40
2019,04,01,04,31,9.40
2019,04,01,04,32,9.40
2019,04,01,04,33,9.40
2019,04,01,04,34,9.40
2019,04,01,04,35,9.40
2019,04,01,04,36,9.50
2019,04,01,04,37,9.50
2019,04,01,04,38,9.50
2019,04,01,04,39,9.40
2019,04,01,04,40,9.40
2019,04,01,04,41,9.40
2019,04,01,04,42,9.40
2019,04,01,04,43,9.40
2019,04,01,04,44,9.40
2019,04,01,04,45,9.40
2019,04,01,04,46,9.40
2019,04,01,04,47,9.40
2019,04,01,04,48,9.40
2019,04,01,04,49,9.40
2019,04,01,04,50,9.40
2019,04,01,04,51,9.40
2019,04,01,04,52,9.40
2019,04,01,04,53,9.40
2019,04,01,04,54,9.40
2019,04,01,04,55,9.40
2019,04,01,04,56,9.40
2019,04,01,04,57,9.40
2019,04,01,04,58,9.40
2019,04,01,04,59,9.40
2019,04,01,05,00,9.40
2019,04,01,05,01,9.40
2019,04,01,05,02,9.40
2019,04,01,05,03,9.40
2019,04,01,05,04,9.40
2019,04,01,05,05,9.40
2019,04,01,05,06,9.40
2019,04,01,05,07,9.40
2019,04,01,05,08,9.40
2019,04,01,05,09,9.40
2019,04,01,05,10,9.40
2019,04,01,05,11,9.40
2019,04,01,05,12,9.40
2019,04,01,05,13,9.40
2019,04,01,05,14,9.40
2019,04,01,05,15,9.40
2019,04,01,05,16,9.30
2019,04,01,05,17,9.30
2019,04,01,05,18,9.30
2019,04,01,05,19,9.30
2019,04,01,05,20,9.30
2019,04,01,05,21,9.30
2019,04,01,05,22,9.20
2019,04,01,05,23,9.20
2019,04,01,05,24,9.20
2019,04,01,05,25,9.20
2019,04,01,05,26,9.20
2019,04,01,05,27,9.20
2019,04,01,05,28,9.10
2019,04,01,05,29,9.10
2019,04,01,05,30,9.10
2019,04,01,05,31,9.10
2019,04,01,05,32,9.10
2019,04,01,05,33,9.10
2019,04,01,05,34,9.10
2019,04,01,05,35,9.10
2019,04,01,05,36,9.10
2019,04,01,05,37,9.00
2019,04,01,05,38,9.00
2019,04,01,05,39,9.00
2019,04,01,05,40,9.00
2019,04,01,05,41,9.00
2019,04,01,05,42,9.00
2019,04,01,05,43,9.00
2019,04,01,05,44,9.00
2019,04,01,05,45,9.00
2019,04,01,05,46,9.00
2019,04,01,05,47,9.00
2019,04,01,05,48,9.00
2019,04,01,05,49,9.00
2019,04,01,05,50,9.00
2019,04,01,05,51,9.00
2019,04,01,05,52,9.00
2019,04,01,05,53,9.10
2019,04,01,05,54,9.10
2019,04,01,05,55,9.10
2019,04,01,05,56,9.10
2019,04,01,05,57,9.10
2019,04,01,05,58,9.10
2019,04,01,05,59,9.20
2019,04,01,06,00,9.20
2019,04,01,06,01,9.20
2019,04,01,06,02,9.20
2019,04,01,06,03,9.20
2019,04,01,06,04,9.20
2019,04,01,06,05,9.20
2019,04,01,06,06,9.20
2019,04,01,06,07,9.30
2019,04,01,06,08,9.30
2019,04,01,06,09,9.30
2019,04,01,06,10,9.40
2019,04,01,06,11,9.40
2019,04,01,06,12,9.40
2019,04,01,06,13,9.40
2019,04,01,06,14,9.40
2019,04,01,06,15,9.40
2019,04,01,06,16,9.40
2019,04,01,06,17,9.40
2019,04,01,06,18,9.40
2019,04,01,06,19,9.40
2019,04,01,06,20,9.40
2019,04,01,06,21,9.40
2019,04,01,06,22,9.40
2019,04,01,06,23,9.40
2019,04,01,06,24,9.50
2019,04,01,06,25,9.50
2019,04,01,06,26,9.50
2019,04,01,06,27,9.50
2019,04,01,06,28,9.50
2019,04,01,06,29,9.50
2019,04,01,06,30,9.50
2019,04,01,06,31,9.50
2019,04,01,06,32,9.50
2019,04,01,06,33,9.60
2019,04,01,06,34,9.60
2019,04,01,06,35,9.60
2019,04,01,06,36,9.60
2019,04,01,06,37,9.60
2019,04,01,06,38,9.60
2019,04,01,06,39,9.60
2019,04,01,06,40,9.60
2019,04,01,06,41,9.60
2019,04,01,06,42,9.60
2019,04,01,06,43,9.60
2019,04,01,06,44,9.70
2019,04,01,06,45,9.70
2019,04,01,06,46,9.70
2019,04,01,06,47,9.70
2019,04,01,06,48,9.70
2019,04,01,06,49,9.60
2019,04,01,06,50,9.60
2019,04,01,06,51,9.60
2019,04,01,06,52,9.60
2019,04,01,06,53,9.60
2019,04,01,06,54,9.60
2019,04,01,06,55,9.70
2019,04,01,06,56,9.70
2019,04,01,06,57,9.70
2019,04,01,06,58,9.70
2019,04,01,06,59,9.70
2019,04,01,07,00,9.70
2019,04,01,07,01,9.70
2019,04,01,07,02,9.70
2019,04,01,07,03,9.70
2019,04,01,07,04,9.70
2019,04,01,07,05,9.70
2019,04,01,07,06,9.70
2019,04,01,07,07,9.70
2019,04,01,07,08,9.70
2019,04,01,07,09,9.70
2019,04,01,07,10,9.70
2019,04,01,07,11,9.70
2019,04,01,07,12,9.80
2019,04,01,07,13,9.80
2019,04,01,07,14,9.80
2019,04,01,07,15,9.80
2019,04,01,07,16,9.80
2019,04,01,07,17,9.80
2019,04,01,07,18,9.80
2019,04,01,07,19,9.80
2019,04,01,07,20,9.80
2019,04,01,07,21,9.80
2019,04,01,07,22,9.80
2019,04,01,07,23,9.80
2019,04,01,07,24,9.80
2019,04,01,07,25,9.80
2019,04,01,07,26,9.80
2019,04,01,07,27,9.80
2019,04,01,07,28,9.80
2019,04,01,07,29,9.80
2019,04,01,07,30,9.80
2019,04,01,07,31,9.80
2019,04,01,07,32,9.80
2019,04,01,12,39,14.20
2019,04,01,12,40,14.20
2019,04,01,12,41,14.10
2019,04,01,12,42,14.10
2019,04,01,12,43,14.10
2019,04,01,12,44,14.10
2019,04,01,12,45,14.10
2019,04,01,12,46,14.10
2019,04,01,12,47,14.10
2019,04,01,12,48,14.10
2019,04,01,12,49,14.20
2019,04,01,12,50,14.20
2019,04,01,12,51,14.30
2019,04,01,12,52,14.30
2019,04,01,12,53,14.40
2019,04,01,12,54,14.40
2019,04,01,12,55,14.30
2019,04,01,12,56,14.30
2019,04,01,12,57,14.40
2019,04,01,12,58,14.40
2019,04,01,12,59,14.30
2019,04,01,13,00,14.40
2019,04,01,13,01,14.30
2019,04,01,13,02,14.30
2019,04,01,13,03,14.30
2019,04,01,13,04,14.30
2019,04,01,13,05,14.30
2019,04,01,13,06,14.30
2019,04,01,13,07,14.30
2019,04,01,13,08,14.40
2019,04,01,13,09,14.50
2019,04,01,13,10,14.50
2019,04,01,13,11,14.50
2019,04,01,13,12,14.40
2019,04,01,13,13,14.40
2019,04,01,13,14,14.40
2019,04,01,13,15,14.30
2019,04,01,13,16,14.30
2019,04,01,13,17,14.20
2019,04,01,13,18,14.20
2019,04,01,13,19,14.20
2019,04,01,13,20,14.20
2019,04,01,13,21,14.20
2019,04,01,13,22,14.20
2019,04,01,13,23,14.20
2019,04,01,13,24,14.20
2019,04,01,13,25,14.20
2019,04,01,13,26,14.20
2019,04,01,13,27,14.20
2019,04,01,13,28,14.20
2019,04,01,13,29,14.20
2019,04,01,13,30,14.20
2019,04,01,13,31,14.30
2019,04,01,13,32,14.30
2019,04,01,13,33,14.30
2019,04,01,13,34,14.30
2019,04,01,13,35,14.40
2019,04,01,13,36,14.40
2019,04,01,13,37,14.40
2019,04,01,13,38,14.50
2019,04,01,13,39,14.50
2019,04,01,13,40,14.60
2019,04,01,13,41,14.60
2019,04,01,13,42,14.60
2019,04,01,13,43,14.60
2019,04,01,13,44,14.70
2019,04,01,13,45,14.70
2019,04,01,13,46,14.70
2019,04,01,13,47,14.60
2019,04,01,13,48,14.60
2019,04,01,13,49,14.50
2019,04,01,13,50,14.50
2019,04,01,13,51,14.50
2019,04,01,13,52,14.60
2019,04,01,13,53,14.60
2019,04,01,13,54,14.60
2019,04,01,13,55,14.60
2019,04,01,13,56,14.50
2019,04,01,13,57,14.50
2019,04,01,13,58,14.50
2019,04,01,13,59,14.50
2019,04,01,14,00,14.50
2019,04,01,14,01,14.50
2019,04,01,14,02,14.50
2019,04,01,14,03,14.50
2019,04,01,14,04,14.60
2019,04,01,14,05,14.60
2019,04,01,14,06,14.70
2019,04,01,14,07,14.80
2019,04,01,14,08,14.90
2019,04,01,14,09,15.00
2019,04,01,14,10,15.10
2019,04,01,14,11,15.10
2019,04,01,14,12,15.00
2019,04,01,14,13,15.00
2019,04,01,14,14,14.90
2019,04,01,14,15,14.90
2019,04,01,14,16,14.90
2019,04,01,14,17,14.90
2019,04,01,14,18,14.90
2019,04,01,14,19,15.00
2019,04,01,14,20,15.00
2019,04,01,14,21,15.10
2019,04,01,14,22,15.10
2019,04,01,14,23,15.10
2019,04,01,14,24,15.00
2019,04,01,14,25,15.00
2019,04,01,14,26,15.00
2019,04,01,14,27,15.00
2019,04,01,14,28,15.10
2019,04,01,14,29,15.10
2019,04,01,14,30,15.20
2019,04,01,14,31,15.20
2019,04,01,14,32,15.20
2019,04,01,14,33,15.10
2019,04,01,14,34,15.10
2019,04,01,14,35,15.10
2019,04,01,14,36,15.10
2019,04,01,14,37,15.20
2019,04,01,14,38,15.20
2019,04,01,14,39,15.10
2019,04,01,14,40,15.10
2019,04,01,14,41,15.10
2019,04,01,14,42,15.10
2019,04,01,14,43,15.10
2019,04,01,14,44,15.10
2019,04,01,14,45,15.10
2019,04,01,14,46,15.20
2019,04,01,14,47,15.20
2019,04,01,14,48,15.30
2019,04,01,14,49,15.30
2019,04,01,14,50,15.30
2019,04,01,14,51,15.30
2019,04,01,14,52,15.40
2019,04,01,14,53,15.30
2019,04,01,14,54,15.30
2019,04,01,14,55,15.30
2019,04,01,14,56,15.30
2019,04,01,14,57,15.30
2019,04,01,14,58,15.30
2019,04,01,14,59,15.30
2019,04,01,15,00,15.30
2019,04,01,15,01,15.30
2019,04,01,15,02,15.30
2019,04,01,15,03,15.30
2019,04,01,15,04,15.30
2019,04,01,15,05,15.30
2019,04,01,15,06,15.30
2019,04,01,15,07,15.30
2019,04,01,15,08,15.30
2019,04,01,15,09,15.30
2019,04,01,15,10,15.30
2019,04,01,15,11,15.20
2019,04,01,15,12,15.20
2019,04,01,15,13,15.30
2019,04,01,15,14,15.30
2019,04,01,15,15,15.30
2019,04,01,15,16,15.30
2019,04,01,15,17,15.30
2019,04,01,15,18,15.40
2019,04,01,15,19,15.40
2019,04,01,15,20,15.40
2019,04,01,15,21,15.30
2019,04,01,15,22,15.30
2019,04,01,15,23,15.40
2019,04,01,15,24,15.40
2019,04,01,15,25,15.40
2019,04,01,15,26,15.40
2019,04,01,15,27,15.40
2019,04,01,15,28,15.40
2019,04,01,15,29,15.40
2019,04,01,15,30,15.50
2019,04,01,15,31,15.50
2019,04,01,15,32,15.60
2019,04,01,15,33,15.50
2019,04,01,15,34,15.50
2019,04,01,15,35,15.50
2019,04,01,15,36,15.50
2019,04,01,15,37,15.50
2019,04,01,15,38,15.50
2019,04,01,15,39,15.50
2019,04,01,15,40,15.60
2019,04,01,15,41,15.60
2019,04,01,15,42,15.60
2019,04,01,15,43,15.70
2019,04,01,15,44,15.80
2019,04,01,15,45,15.80
2019,04,01,15,46,15.90
2019,04,01,15,47,16.00
2019,04,01,15,48,16.00
2019,04,01,15,49,16.00
2019,04,01,15,50,16.10
2019,04,01,15,51,16.10
2019,04,01,15,52,16.10
2019,04,01,15,53,16.10
2019,04,01,15,54,16.10
2019,04,01,15,55,16.20
2019,04,01,15,56,16.20
2019,04,01,15,57,16.30
2019,04,01,15,58,16.30
2019,04,01,15,59,16.30
2019,04,01,16,00,16.30
2019,04,01,16,01,16.30
2019,04,01,16,02,16.40
2019,04,01,16,03,16.30
2019,04,01,16,04,16.30
2019,04,01,16,05,16.20
2019,04,01,16,06,16.10
2019,04,01,16,07,16.10
2019,04,01,16,08,16.10
2019,04,01,16,09,16.10
2019,04,01,16,10,16.10
2019,04,01,16,11,16.10
2019,04,01,16,12,16.10
2019,04,01,16,13,16.10
2019,04,01,16,14,16.10
2019,04,01,16,15,16.10
2019,04,01,16,16,16.10
2019,04,01,16,17,16.10
2019,04,01,16,18,16.10
2019,04,01,16,19,16.10
2019,04,01,16,20,16.10
2019,04,01,16,21,16.10
2019,04,01,16,22,16.00
2019,04,01,16,23,16.00
2019,04,01,16,24,16.00
2019,04,01,16,25,16.10
2019,04,01,16,26,16.10
2019,04,01,16,27,16.20
2019,04,01,16,28,16.20
2019,04,01,16,29,16.20
2019,04,01,16,30,16.20
2019,04,01,16,31,16.20
2019,04,01,16,32,16.10
2019,04,01,16,33,16.10
2019,04,01,16,34,16.10
2019,04,01,16,35,16.10
2019,04,01,16,36,16.10
2019,04,01,16,37,16.10
2019,04,01,16,38,16.20
2019,04,01,16,39,16.20
2019,04,01,16,40,16.20
2019,04,01,16,41,16.20
2019,04,01,16,42,16.20
2019,04,01,16,43,16.30
2019,04,01,16,44,16.30
2019,04,01,16,45,16.40
2019,04,01,16,46,16.40
2019,04,01,16,47,16.40
2019,04,01,16,48,16.40
2019,04,01,16,49,16.40
2019,04,01,16,50,16.40
2019,04,01,16,51,16.40
2019,04,01,16,52,16.40
2019,04,01,16,53,16.40
2019,04,01,16,54,16.40
2019,04,01,16,55,16.40
2019,04,01,16,56,16.40
2019,04,01,16,57,16.40
2019,04,01,16,58,16.40
2019,04,01,16,59,16.40
2019,04,01,17,00,16.40
2019,04,01,17,01,16.40
2019,04,01,17,02,16.40
2019,04,01,17,03,16.40
2019,04,01,17,04,16.40
2019,04,01,17,05,16.40
2019,04,01,17,06,16.40
2019,04,01,17,07,16.40
2019,04,01,17,08,16.40
2019,04,01,17,09,16.30
2019,04,01,17,10,16.30
2019,04,01,17,11,16.40
2019,04,01,17,12,16.40
2019,04,01,17,13,16.40
2019,04,01,17,14,16.40
2019,04,01,17,15,16.40
2019,04,01,17,16,16.40
2019,04,01,17,17,16.40
2019,04,01,17,18,16.40
2019,04,01,17,19,16.40
2019,04,01,17,20,16.50
2019,04,01,17,21,16.50
2019,04,01,17,22,16.40
2019,04,01,17,23,16.40
2019,04,01,17,24,16.40
2019,04,01,17,25,16.40
2019,04,01,17,26,16.40
2019,04,01,17,27,16.40
2019,04,01,17,28,16.40
2019,04,01,17,29,16.50
2019,04,01,17,30,16.50
2019,04,01,17,31,16.50
2019,04,01,17,32,16.60
2019,04,01,17,33,16.60
2019,04,01,17,34,16.60
2019,04,01,17,35,16.60
2019,04,01,17,36,16.70
2019,04,01,17,37,16.70
2019,04,01,17,38,16.80
2019,04,01,17,39,16.80
2019,04,01,17,40,16.80
2019,04,01,17,41,16.70
2019,04,01,17,42,16.80
2019,04,01,17,43,16.80
2019,04,01,17,44,16.80
2019,04,01,17,45,16.80
2019,04,01,17,46,16.80
2019,04,01,17,47,16.70
2019,04,01,17,48,16.70
2019,04,01,17,49,16.70
2019,04,01,17,50,16.70
2019,04,01,17,51,16.60
2019,04,01,17,52,16.60
2019,04,01,17,53,16.60
2019,04,01,17,54,16.60
2019,04,01,17,55,16.60
2019,04,01,17,56,16.60
2019,04,01,17,57,16.60
2019,04,01,17,58,16.60
2019,04,01,17,59,16.60
2019,04,01,18,00,16.60
2019,04,01,18,01,16.60
2019,04,01,18,02,16.60
2019,04,01,18,03,16.60
2019,04,01,18,04,16.60
2019,04,01,18,05,16.70
2019,04,01,18,06,16.70
2019,04,01,18,07,16.60
2019,04,01,18,08,16.60
2019,04,01,18,09,16.60
2019,04,01,18,10,16.60
2019,04,01,18,11,16.60
2019,04,01,18,12,16.60
2019,04,01,18,13,16.50
2019,04,01,18,14,16.50
2019,04,01,18,15,16.60
2019,04,01,18,16,16.60
2019,04,01,18,17,16.60
2019,04,01,18,18,16.60
2019,04,01,18,19,16.60
2019,04,01,18,20,16.60
2019,04,01,18,21,16.60
2019,04,01,18,22,16.60
2019,04,01,18,23,16.60
2019,04,01,18,24,16.50
2019,04,01,18,25,16.50
2019,04,01,18,26,16.60
2019,04,01,18,27,16.50
2019,04,01,18,28,16.50
2019,04,01,18,29,16.50
2019,04,01,18,30,16.50
2019,04,01,18,31,16.50
2019,04,01,18,32,16.50
2019,04,01,18,33,16.60
2019,04,01,18,34,16.60
2019,04,01,18,35,16.50
2019,04,01,18,36,16.50
2019,04,01,18,37,16.50
2019,04,01,18,38,16.40
2019,04,01,18,39,16.40
2019,04,01,18,40,16.40
2019,04,01,18,41,16.50
2019,04,01,18,42,16.50
2019,04,01,18,43,16.50
2019,04,01,18,44,16.40
2019,04,01,18,45,16.40
2019,04,01,18,46,16.30
2019,04,01,18,47,16.30
2019,04,01,18,48,16.30
2019,04,01,18,49,16.20
2019,04,01,18,50,16.20
2019,04,01,18,51,16.10
2019,04,01,18,52,16.10
2019,04,01,18,53,16.10
2019,04,01,18,54,16.10
2019,04,01,18,55,16.10
2019,04,01,18,56,16.10
2019,04,01,18,57,16.10
2019,04,01,18,58,16.00
2019,04,01,18,59,16.00
2019,04,01,19,00,16.00
2019,04,01,19,01,16.00
2019,04,01,19,02,16.00
2019,04,01,19,03,15.90
2019,04,01,19,04,15.90
2019,04,01,19,05,15.90
2019,04,01,19,06,15.80
2019,04,01,19,07,15.80
2019,04,01,19,08,15.80
2019,04,01,19,09,15.70
2019,04,01,19,10,15.70
2019,04,01,19,11,15.70
2019,04,01,19,12,15.60
2019,04,01,19,13,15.60
2019,04,01,19,14,15.60
2019,04,01,19,15,15.60
2019,04,01,19,16,15.60
2019,04,01,19,17,15.60
2019,04,01,19,18,15.50
2019,04,01,19,19,15.50
2019,04,01,19,20,15.50
2019,04,01,19,21,15.40
2019,04,01,19,22,15.40
2019,04,01,19,23,15.40
2019,04,01,19,24,15.40
2019,04,01,19,25,15.40
2019,04,01,19,26,15.40
2019,04,01,19,27,15.40
2019,04,01,19,28,15.40
2019,04,01,19,29,15.40
2019,04,01,19,30,15.40
2019,04,01,19,31,15.40
2019,04,01,19,32,15.40
2019,04,01,19,33,15.40
2019,04,01,19,34,15.40
2019,04,01,19,35,15.40
2019,04,01,19,36,15.40
2019,04,01,19,37,15.40
2019,04,01,19,38,15.30
2019,04,01,19,39,15.30
2019,04,01,19,40,15.30
2019,04,01,19,41,15.30
2019,04,01,19,42,15.30
2019,04,01,19,43,15.30
2019,04,01,19,44,15.30
2019,04,01,19,45,15.30
2019,04,01,19,46,15.30
2019,04,01,19,47,15.30
2019,04,01,19,48,15.30
2019,04,01,19,49,15.30
2019,04,01,19,50,15.30
2019,04,01,19,51,15.20
2019,04,01,19,52,15.20
2019,04,01,19,53,15.20
2019,04,01,19,54,15.20
2019,04,01,19,55,15.20
2019,04,01,19,56,15.20
2019,04,01,19,57,15.20
2019,04,01,19,58,15.10
2019,04,01,19,59,15.10
2019,04,01,20,00,15.10
2019,04,01,20,01,15.10
2019,04,01,20,02,15.10
2019,04,01,20,03,15.10
2019,04,01,20,04,15.10
2019,04,01,20,05,15.00
2019,04,01,20,06,15.00
2019,04,01,20,07,15.00
2019,04,01,20,08,14.90
2019,04,01,20,09,14.90
2019,04,01,20,10,14.90
2019,04,01,20,11,14.90
2019,04,01,20,12,14.90
2019,04,01,20,13,14.90
2019,04,01,20,14,14.90
2019,04,01,20,15,14.80
2019,04,01,20,16,14.80
2019,04,01,20,17,14.80
2019,04,01,20,18,14.80
2019,04,01,20,19,14.80
2019,04,01,20,20,14.80
2019,04,01,20,21,14.80
2019,04,01,20,22,14.80
2019,04,01,20,23,14.80
2019,04,01,20,24,14.90
2019,04,01,20,25,14.90
2019,04,01,20,26,14.90
2019,04,01,20,27,14.80
2019,04,01,20,28,14.80
2019,04,01,20,29,14.80
2019,04,01,20,30,14.80
2019,04,01,20,31,14.80
2019,04,01,20,32,14.80
2019,04,01,20,33,14.80
2019,04,01,20,34,14.70
2019,04,01,20,35,14.70
2019,04,01,20,36,14.70
2019,04,01,20,37,14.70
2019,04,01,20,38,14.70
2019,04,01,20,39,14.70
2019,04,01,20,40,14.70
2019,04,01,20,41,14.70
2019,04,01,20,42,14.70
2019,04,01,20,43,14.70
2019,04,01,20,44,14.70
2019,04,01,20,45,14.70
2019,04,01,20,46,14.70
2019,04,01,20,47,14.70
2019,04,01,20,48,14.70
2019,04,01,20,49,14.70
2019,04,01,20,50,14.70
2019,04,01,20,51,14.70
2019,04,01,20,52,14.70
2019,04,01,20,53,14.70
2019,04,01,20,54,14.70
2019,04,01,20,55,14.70
2019,04,01,20,56,14.70
2019,04,01,20,57,14.60
2019,04,01,20,58,14.60
2019,04,01,20,59,14.60
2019,04,01,21,00,14.60
2019,04,01,21,01,14.60
2019,04,01,21,02,14.60
2019,04,01,21,03,14.60
2019,04,01,21,04,14.60
2019,04,01,21,05,14.60
2019,04,01,21,06,14.60
2019,04,01,21,07,14.50
2019,04,01,21,08,14.50
2019,04,01,21,09,14.50
2019,04,01,21,10,14.50
2019,04,01,21,11,14.40
2019,04,01,21,12,14.40
2019,04,01,21,13,14.40
2019,04,01,21,14,14.40
2019,04,01,21,15,14.40
2019,04,01,21,16,14.40
2019,04,01,21,17,14.40
2019,04,01,21,18,14.40
2019,04,01,21,19,14.40
2019,04,01,21,20,14.40
2019,04,01,21,21,14.40
2019,04,01,21,22,14.40
2019,04,01,21,23,14.40
2019,04,01,21,24,14.40
2019,04,01,21,25,14.30
2019,04,01,21,26,14.30
2019,04,01,21,27,14.20
2019,04,01,21,28,14.10
2019,04,01,21,29,14.10
2019,04,01,21,30,14.00
2019,04,01,21,31,13.90
2019,04,01,21,32,13.90
2019,04,01,21,33,13.80
2019,04,01,21,34,13.80
2019,04,01,21,35,13.70
2019,04,01,21,36,13.70
2019,04,01,21,37,13.70
2019,04,01,21,38,13.70
2019,04,01,21,39,13.70
2019,04,01,21,40,13.70
2019,04,01,21,41,13.80
2019,04,01,21,42,13.80
2019,04,01,21,43,13.90
2019,04,01,21,44,13.90
2019,04,01,21,45,13.90
2019,04,01,21,46,14.00
2019,04,01,21,47,14.10
2019,04,01,21,48,14.10
2019,04,01,21,49,14.10
2019,04,01,21,50,14.10
2019,04,01,21,51,14.10
2019,04,01,21,52,14.10
2019,04,01,21,53,14.10
2019,04,01,21,54,14.10
2019,04,01,21,55,14.10
2019,04,01,21,56,14.10
2019,04,01,21,57,14.10
2019,04,01,21,58,14.10
2019,04,01,21,59,14.10
2019,04,01,22,00,14.10
2019,04,01,22,01,14.10
2019,04,01,22,02,14.10
2019,04,01,22,03,14.10
2019,04,01,22,04,14.10
2019,04,01,22,05,14.10
2019,04,01,22,06,14.00
2019,04,01,22,07,14.00
2019,04,01,22,08,14.00
2019,04,01,22,09,14.00
2019,04,01,22,10,13.90
2019,04,01,22,11,13.90
2019,04,01,22,12,13.90
2019,04,01,22,13,13.80
2019,04,01,22,14,13.80
2019,04,01,22,15,13.80
2019,04,01,22,16,13.80
2019,04,01,22,17,13.70
2019,04,01,22,18,13.70
2019,04,01,22,19,13.70
2019,04,01,22,20,13.70
2019,04,01,22,21,13.70
2019,04,01,22,22,13.70
2019,04,01,22,23,13.70
2019,04,01,22,24,13.60
2019,04,01,22,25,13.60
2019,04,01,22,26,13.60
2019,04,01,22,27,13.60
2019,04,01,22,28,13.60
2019,04,01,22,29,13.60
2019,04,01,22,30,13.60
2019,04,01,22,31,13.60
2019,04,01,22,32,13.50
2019,04,01,22,33,13.50
2019,04,01,22,34,13.50
2019,04,01,22,35,13.40
2019,04,01,22,36,13.40
2019,04,01,22,37,13.40
2019,04,01,22,38,13.40
2019,04,01,22,39,13.40
2019,04,01,22,40,13.40
2019,04,01,22,41,13.40
2019,04,01,22,42,13.40
2019,04,01,22,43,13.40
2019,04,01,22,44,13.40